sat.trackr.live / text

‹ back to catalog

STARLINK-35784

NORAD 67093 · 2025-298U

PAYLOAD ACTIVE UNKNOWN

§ Identity

Operator
Country
US
Launch date
2025-12-14
Launch site
AFWTR
Launch vehicle
Mass (kg)
RCS (m²)

Purposes: comms

External: N2YO · Heavens-Above · Gunter

§ Orbital elements

Epoch: 2026-09-19T22:04:15.968064Z

Period
96.11 min
Inclination
70.0005°
Eccentricity
0.0003793
Mean motion
14.98337404 rev/d
Perigee alt
569.4 km
Apogee alt
574.7 km
Semi-major
6,950.2 km
B*
3.1913e-4
RAAN
244.6359°
Arg perigee
264.9703°
Mean anomaly
95.1023°
Rev number
4,231

§ Raw data

STARLINK-357841 67093U 25298U   26262.91962926  .00003718  00000+0  31913-3 0  99912 67093  70.0005 244.6359 0003793 264.9703  95.1023 14.98337404 42318

JSON: /api/v1/satellites/67093 · /tle

For live sub-satellite position, see the globe view (requires WebGL).

§ Visibility from observer

Set your observer location to see the next 7 days of passes ≥ 10°. The values pass through the URL so the page stays shareable.

No JS? Fill the form by hand. The geolocation button needs JavaScript.